Tracking 35274 objects as of 11-Sep-2026
HD Live streaming from Space Station
objects crossing your sky now

COSMOS 1374


COSMOS 1374 is no longer on orbit


NORAD ID: 13257
Int'l Code: 1982-054A
Launch date: June 3, 1982
Source: Commonwealth of Independent States (former USSR) (CIS)
Launch site: KAPUSTIN YAR MISSILE AND SPACE COMPLEX (KYMTR)
Decay date: 1982-06-04
Your satellite tracking list
Your tracking list is empty




NASA's NSSDC Master Catalog

Two Line Element Set (TLE):
1 13257U 82054  A 82155.06528526 -.00007607 +52534-4 +00000-0 0  9996
2 13257 049.6183 146.8127 0029825 021.4591 337.8100 16.23525441000014
Source of the keplerian elements: AFSPC